North Myrtle Beach, SC

3:20 AM EST on November 18, 2019 (GMT -0500)
Grand Strand

Weather History for KCRE - August, 2019

Change the Weather History Date:

Saturday, August 17, 2019

  Actual Average Record
Temperature  
Mean Temperature 79 °F 79 °F  
Max Temperature 82 °F 86 °F 103 °F (1954)
Min Temperature 76 °F 72 °F 62 °F (1961)
Degree Days  
Heating Degree Days 0 0  
Month to date heating degree days 0 0  
Since 1 June heating degree days 0 0  
Since 1 July heating degree days 0 0  
Cooling Degree Days 14 14  
Month to date cooling degree days 279 243  
Year to date cooling degree days 1571 1288  
Since 1 June cooling degree days 1178 1076  
Growing Degree Days 28 (Base 50)    
Moisture  
Dew Point 75 °F    
Average Humidity 82    
Maximum Humidity 85    
Minimum Humidity 79    
Precipitation  
Precipitation 2.57 in 0.27 in 3.73 in (2017)
Month to date precipitation 7.94 3.64  
Year to date precipitation 30.95 31.58  
Sea Level Pressure  
Sea Level Pressure 29.99 in    
Wind  
Wind Speed 7 mph (SW)    
Max Wind Speed 21 mph    
Max Gust Speed 26 mph    
Visibility 7 miles    
Events Fog , Rain , Thunderstorm    
T = Trace of Precipitation, MM = Missing Value Source: NWS Daily Summary

Daily Weather History Graph

Daily Weather History Graph

Search for Another Location

Airport or City:

Astronomy

Aug. 17, 2019 Rise Set
Actual Time 6:38 AM EDT 7:59 PM EDT
Civil Twilight 6:11 AM EDT 8:25 PM EDT
Nautical Twilight 5:40 AM EDT 8:56 PM EDT
Astronomical Twilight 5:07 AM EDT 9:29 PM EDT
Moon 9:30 PM EDT (8/17) 8:21 AM EDT (8/17)
Length of Visible Light 14h 13m
Length of Day
13h 21m
Waning Gibbous, 96% of the Moon is Illuminated
Aug 17
Waning Gibbous
Aug 23
Last Quarter
Aug 30
New
Sep 5
First Quarter
Sep 14
Full

Hourly Weather History & Observations

Time (EDT) Temp. Heat Index Dew Point Humidity Pressure Visibility Wind Dir Wind Speed Gust Speed Precip Events Conditions
12:04 AM 79.0 °F - 72.0 °F 79% 29.99 in 10.0 mi South 6.9 mph - N/A   Mostly Cloudy
12:31 AM 81.0 °F 87.3 °F 75.9 °F 85% 29.98 in 10.0 mi South 17.3 mph 23.0 mph N/A   Overcast
12:51 AM 78.8 °F - 73.4 °F 83% 29.99 in 10.0 mi South 12.7 mph - N/A   Mostly Cloudy
12:53 AM 79.0 °F - 73.9 °F 84% 29.99 in 10.0 mi SSE 12.7 mph - N/A   Mostly Cloudy
1:03 AM 79.0 °F - 73.9 °F 84% 29.99 in 10.0 mi South 9.2 mph - N/A   Overcast
1:35 AM 81.0 °F 86.7 °F 75.0 °F 82% 29.98 in 10.0 mi SW 8.1 mph - N/A   Mostly Cloudy
1:53 AM 81.0 °F 86.7 °F 75.0 °F 82% 29.99 in 10.0 mi SSW 11.5 mph - N/A   Mostly Cloudy
2:10 AM 81.0 °F 86.2 °F 73.9 °F 79% 29.99 in 10.0 mi SSW 13.8 mph - N/A   Mostly Cloudy
2:19 AM 81.0 °F 86.7 °F 75.0 °F 82% 29.98 in 10.0 mi SW 12.7 mph - N/A   Mostly Cloudy
2:53 AM 81.0 °F 86.7 °F 75.0 °F 82% 29.99 in 10.0 mi SW 8.1 mph - N/A   Partly Cloudy
3:53 AM 82.0 °F 88.6 °F 75.0 °F 79% 29.98 in 10.0 mi SW 11.5 mph - N/A   Clear
4:53 AM 81.0 °F 86.7 °F 75.0 °F 82% 29.98 in 10.0 mi WSW 4.6 mph - N/A   Scattered Clouds
5:53 AM 79.0 °F - 73.9 °F 84% 29.98 in 10.0 mi SSW 4.6 mph - N/A   Partly Cloudy
6:36 AM 79.0 °F - 75.0 °F 88% 29.98 in 10.0 mi Calm Calm - N/A Thunderstorm Overcast
6:53 AM 80.1 °F 85.1 °F 75.0 °F 85% 29.99 in 10.0 mi SSW 10.4 mph - N/A Thunderstorm Thunderstorm
7:07 AM 78.1 °F - 73.0 °F 84% 30.00 in 4.0 mi SW 15.0 mph - 0.05 in Rain , Thunderstorm Heavy Thunderstorms and Rain
7:11 AM 77.0 °F - 73.0 °F 88% 29.99 in 2.5 mi WSW 5.8 mph - 0.10 in Rain , Thunderstorm Heavy Thunderstorms and Rain
7:18 AM 75.9 °F - 73.0 °F 91% 29.99 in 2.5 mi Calm Calm - 0.13 in Rain , Thunderstorm Rain
7:47 AM 77.0 °F - 73.4 °F 89% 29.99 in 3.0 mi Calm Calm - 0.27 in Rain Light Rain
7:53 AM 77.0 °F - 73.9 °F 90% 29.99 in 4.0 mi SW 4.6 mph - 0.31 in Rain Rain
8:20 AM 78.1 °F - 75.0 °F 90% 30.00 in 10.0 mi South 8.1 mph - 0.00 in Thunderstorm Thunderstorm
8:34 AM 77.0 °F - 73.0 °F 88% 30.01 in 2.0 mi SSW 15.0 mph - 0.19 in Rain , Thunderstorm Heavy Rain
8:41 AM 75.9 °F - 73.0 °F 91% 30.02 in 2.0 mi SW 18.4 mph 23.0 mph 0.39 in Rain , Thunderstorm Heavy Rain
8:44 AM 75.9 °F - 73.0 °F 91% 30.01 in 0.5 mi SW 16.1 mph 23.0 mph 0.58 in Fog , Rain Heavy Rain
8:53 AM 75.9 °F - 73.0 °F 91% 30.01 in 0.8 mi WNW 8.1 mph - 0.70 in Rain Heavy Rain
9:00 AM 77.0 °F - 73.9 °F 90% 30.01 in 0.8 mi West 10.4 mph 18.4 mph 0.23 in Rain Heavy Rain
9:17 AM 77.0 °F - 73.9 °F 90% 30.01 in 0.8 mi West 6.9 mph 17.3 mph 0.57 in Rain Heavy Rain
9:31 AM 77.0 °F - 73.9 °F 90% 30.01 in 1.8 mi West 6.9 mph - 0.73 in Rain Heavy Rain
9:35 AM 78.1 °F - 73.9 °F 87% 30.01 in 3.0 mi WNW 6.9 mph - 0.73 in Rain Light Rain
9:53 AM 78.1 °F - 75.0 °F 90% 30.02 in 9.0 mi West 4.6 mph - 0.74 in Thunderstorm Overcast
10:14 AM 77.0 °F - 73.9 °F 90% 30.02 in 6.0 mi WNW 10.4 mph - 0.05 in Rain Light Rain
10:27 AM 77.0 °F - 73.9 °F 90% 30.02 in 5.0 mi West 8.1 mph - 0.07 in Rain , Thunderstorm Thunderstorms and Rain
10:41 AM 77.0 °F - 73.9 °F 90% 30.02 in 9.0 mi West 6.9 mph - 0.08 in Rain Light Rain
10:53 AM 77.0 °F - 75.0 °F 94% 30.03 in 10.0 mi West 3.5 mph - 0.08 in Rain Light Rain
11:50 AM 80.6 °F 86.2 °F 75.2 °F 84% 30.02 in 10.0 mi Calm Calm - 0.04 in   Mostly Cloudy
11:53 AM 80.1 °F 85.4 °F 75.9 °F 87% 30.02 in 10.0 mi Calm Calm - 0.04 in   Mostly Cloudy
12:01 PM 81.0 °F 87.3 °F 75.9 °F 85% 30.01 in 10.0 mi SW 4.6 mph - N/A   Mostly Cloudy
12:27 PM 80.1 °F 85.4 °F 75.9 °F 87% 30.01 in 10.0 mi West 5.8 mph - 0.00 in Rain Light Rain
12:53 PM 80.1 °F 85.1 °F 75.0 °F 85% 30.02 in 10.0 mi SSW 9.2 mph - 0.04 in   Mostly Cloudy
1:31 PM 80.1 °F 85.1 °F 75.0 °F 85% 30.01 in 2.5 mi SSW 17.3 mph 26.5 mph 0.09 in Rain Heavy Rain
1:34 PM 79.0 °F - 75.0 °F 88% 30.00 in 1.8 mi SW 16.1 mph - 0.11 in Rain Heavy Rain
1:40 PM 79.0 °F - 75.9 °F 90% 30.00 in 3.0 mi SSW 11.5 mph - 0.11 in Rain Light Rain
1:53 PM 81.0 °F 87.3 °F 75.9 °F 85% 30.00 in 10.0 mi SSW 10.4 mph - 0.12 in Rain Light Rain
2:53 PM 80.1 °F 85.4 °F 75.9 °F 87% 30.01 in 7.0 mi SW 5.8 mph - 0.02 in Rain Rain
3:08 PM 81.0 °F 87.3 °F 75.9 °F 85% 29.99 in 8.0 mi SW 5.8 mph - 0.02 in Rain Light Rain
3:16 PM 80.1 °F 85.4 °F 75.9 °F 87% 29.99 in 10.0 mi West 4.6 mph - 0.02 in Rain Light Rain
3:23 PM 80.1 °F 85.4 °F 75.9 °F 87% 29.99 in 1.8 mi Variable 5.8 mph - 0.08 in Rain Light Rain
3:30 PM 80.1 °F 85.8 °F 77.0 °F 90% 29.98 in 4.0 mi Calm Calm - 0.09 in Rain Light Rain
3:53 PM 80.1 °F 85.1 °F 75.0 °F 85% 29.98 in 8.0 mi WSW 5.8 mph - 0.12 in Rain Light Rain
4:34 PM 81.0 °F 87.3 °F 75.9 °F 85% 29.97 in 10.0 mi Variable 4.6 mph - 0.01 in Rain Light Rain
4:53 PM 82.0 °F 88.6 °F 75.0 °F 79% 29.97 in 10.0 mi South 6.9 mph - 0.01 in   Scattered Clouds
5:21 PM 80.1 °F 85.4 °F 75.9 °F 87% 29.96 in 4.0 mi SE 3.5 mph - 0.02 in Rain Light Rain
5:53 PM 81.0 °F 87.3 °F 75.9 °F 85% 29.96 in 10.0 mi SE 6.9 mph - 0.03 in   Mostly Cloudy
5:59 PM 81.0 °F 87.3 °F 75.9 °F 85% 29.96 in 10.0 mi SSE 6.9 mph - N/A   Mostly Cloudy
6:08 PM 81.0 °F 87.3 °F 75.9 °F 85% 29.96 in 10.0 mi SE 4.6 mph - N/A   Mostly Cloudy
6:53 PM 81.0 °F 87.3 °F 75.9 °F 85% 29.97 in 10.0 mi SSE 9.2 mph - 0.00 in   Overcast
7:43 PM 81.0 °F 86.7 °F 75.0 °F 82% 29.97 in 10.0 mi SSW 11.5 mph - 0.00 in Rain Light Rain
7:53 PM 81.0 °F 86.7 °F 75.0 °F 82% 29.97 in 10.0 mi South 10.4 mph - 0.00 in   Overcast
8:18 PM 80.1 °F 85.4 °F 75.9 °F 87% 29.96 in 7.0 mi South 11.5 mph - 0.01 in Rain Rain
8:26 PM 80.1 °F 85.1 °F 75.0 °F 85% 29.96 in 9.0 mi SSW 9.2 mph - 0.02 in Rain Light Rain
8:36 PM 80.1 °F 85.4 °F 75.9 °F 87% 29.96 in 10.0 mi South 4.6 mph - 0.02 in   Overcast
8:46 PM 80.1 °F 85.4 °F 75.9 °F 87% 29.96 in 10.0 mi SSW 6.9 mph - 0.02 in Rain Light Rain
8:53 PM 80.1 °F 85.4 °F 75.9 °F 87% 29.97 in 10.0 mi SSW 8.1 mph - 0.02 in Rain Light Rain
9:12 PM 80.1 °F 85.1 °F 75.0 °F 85% 29.98 in 10.0 mi South 5.8 mph - 0.00 in   Overcast
9:44 PM 79.0 °F - 75.0 °F 88% 29.98 in 3.0 mi SW 13.8 mph - 0.11 in Rain Heavy Rain
9:51 PM 78.8 °F - 75.2 °F 89% 29.98 in 1.8 mi WSW 12.7 mph - 0.24 in Rain Heavy Rain
9:52 PM 79.0 °F - 75.0 °F 88% 29.99 in 1.8 mi WSW 11.5 mph - 0.25 in Rain Heavy Rain
10:04 PM 79.0 °F - 75.9 °F 90% 29.98 in 3.0 mi SSW 10.4 mph - 0.09 in Rain Rain
10:53 PM 78.1 °F - 75.9 °F 93% 29.99 in 10.0 mi Calm Calm - 0.09 in   Overcast
11:07 PM 78.1 °F - 75.9 °F 93% 29.96 in 10.0 mi NE 5.8 mph - N/A   Overcast
11:24 PM 78.1 °F - 75.9 °F 93% 29.96 in 10.0 mi East 3.5 mph - N/A   Overcast
11:49 PM 80.6 °F 86.2 °F 75.2 °F 84% 29.96 in 10.0 mi South 5.8 mph - N/A   Overcast
11:53 PM 81.0 °F 87.3 °F 75.9 °F 85% 29.97 in 10.0 mi South 4.6 mph - N/A   Mostly Cloudy